Regional Weather Roundup
Issued by NWS

Home | Current Version | Previous Version | Text Only | Print | Product List | Glossary Off
Versions: 1 2 3 4 5 6 7 8 9 10 11 12 13 14 15 16 17 18 19 20 21 22 23 24 25 26 27 28 29 30 31 32 33 34 35 36 37 38 39 40 41 42 43 44 45 46 47 48 49 50

000
ASUS43 KDMX 261307
RWRIA

WEATHER ROUNDUP FOR IOWA
NATIONAL WEATHER SERVICE DES MOINES IA
800 AM CDT THU MAR 26 2015

NOTE: "FAIR" INDICATES FEW OR NO CLOUDS BELOW 12,000 FEET WITH NO
SIGNIFICANT WEATHER AND/OR OBSTRUCTIONS TO VISIBILITY.

* - THESE STATIONS ARE NOT NWS STATIONS...THUS NOT UNDER NWS
QUALITY CONTROL.  THEY ALSO DO NOT REPORT WEATHER SUCH
AS PRECIPITATION OR FOG.

IAZ001>003-012>014-020>022-031>034-043>046-261400-
   NORTHWEST IOWA

CITY           SKY/WX    TMP DP  RH WIND       PRES   REMARKS
CARROLL *      CLEAR     27  23  86 W8        30.17R WCI  18
CHEROKEE *     CLEAR     28  23  80 NW5       30.17R WCI  23
DENISON *      CLEAR     25  23  93 SW6       30.17R WCI  18
LE MARS *      CLEAR     27  21  80 CALM      30.20R
ORANGE CITY *  CLEAR     25  19  80 NW6       30.17R WCI  18
SHELDON *      PTCLDY    25  21  86 NW6       30.16R WCI  18
SIOUX CITY     CLEAR     23  18  81 NW5       30.21R WCI  17
SPENCER          N/A     26  21  81 NW8       30.16R WCI  18
STORM LAKE *   CLEAR     27  21  80 NW12      30.16R WCI  16
$$

IAZ055>058-069>071-079>083-090>094-261400-
   SOUTHWEST IOWA

CITY           SKY/WX    TMP DP  RH WIND       PRES   REMARKS
ATLANTIC *     CLEAR     27  23  86 CALM      30.20R
AUDUBON *      CLEAR     27  21  80 NW5       30.18R WCI  21
CLARINDA *     CLEAR     28  25  86 W3        30.24R
COUNCIL BLFS * CLEAR     28  25  86 SW5       30.22R WCI  23
CRESTON *      CLEAR     27  23  86 W6        30.18R WCI  20
HARLAN  *      CLEAR     27  27 100 VRB3      30.23R
LAMONI         CLEAR     29  24  82 W6        30.17R WCI  23
RED OAK *      CLEAR     28  25  86 NW8       30.22R WCI  20
SHENANDOAH *   CLEAR     28  27  93 W5        30.24R WCI  23
$$

IAZ047>049-059>061-072>074-084-261400-
   CENTRAL IOWA

CITY           SKY/WX    TMP DP  RH WIND       PRES   REMARKS
AMES           CLEAR     30  22  72 W7        30.14R WCI  23
ANKENY *       CLEAR     32  23  69 W9        30.16R WCI  24
CHARITON *     CLEAR     30  25  80 NW8       30.15R WCI  23
DES MOINES     CLEAR     32  22  66 NW9       30.16R WCI  24
GRINNELL*      CLEAR     30  25  80 NW10      30.12R WCI  21
KNOXVILLE *    CLEAR     30  23  74 NW8       30.14R WCI  23
MARSHALLTOWN   CLEAR     28  24  85 W8        30.11R WCI  20
PELLA *        CLEAR     30  27  86 NW8       30.15R WCI  23
PERRY *          N/A     28  25  86 NW9       30.17R WCI  20
$$

IAZ004>006-015-016-023>025-035-036-261400-
   NORTH CENTRAL IOWA

CITY           SKY/WX    TMP DP  RH WIND       PRES   REMARKS
ALGONA *       CLEAR     30  25  80 NW12      30.13S WCI  21
CLARION *      CLEAR     30  27  86 NW14      30.12R WCI  20
ESTHERVILLE    CLEAR     27  22  81 NW12      30.13R WCI  17
FORT DODGE *   CLEAR     28  21  74 NW6       30.14S WCI  22
MASON CITY     CLEAR     29  23  78 NW13      30.10S WCI  19
FOREST CITY *  CLEAR     28  25  86 NW12      30.10R WCI  18
IOWA FALLS *     N/A     30  25  80 NW12      30.12R WCI  21
$$

IAZ007>011-017>019-026>030-037>042-050>054-066-261400-
   NORTHEAST IOWA

CITY           SKY/WX    TMP DP  RH WIND       PRES   REMARKS
CEDAR RAPIDS   SUNNY     29  24  82 NW12      30.07R WCI  19
CHARLES CITY * CLEAR     30  23  74 NW17      30.09R WCI  18
CLINTON *      SUNNY     28  25  86 W9        30.08R WCI  20
DECORAH *      PTSUNNY   27  19  74 VRB5      30.04R WCI  21
DUBUQUE        SUNNY     30  21  69 N15       30.03R WCI  19
MONTICELLO *   SUNNY     32  23  69 NW15      30.06R WCI  22
OELWEIN *      SUNNY     30  23  74 NW16      30.07R WCI  19
WATERLOO       CLEAR     30  23  75 NW16      30.08R WCI  19
$$

IAZ064-065-067-068-078-261400-
   EAST CENTRAL IOWA

CITY           SKY/WX    TMP DP  RH WIND       PRES   REMARKS
DAVENPORT      SUNNY     29  25  85 W10       30.07R WCI  20
IOWA CITY      SUNNY     31  24  75 NW10      30.11R WCI  22
MUSCATINE *    SUNNY     30  27  86 W9        30.11R WCI  22
QUAD CITIES    SUNNY     32  25  75 W8        30.07R WCI  25
$$

IAZ062-063-075>077-085>089-095>099-261400-
   SOUTHEAST IOWA

CITY           SKY/WX    TMP DP  RH WIND       PRES   REMARKS
BURLINGTON       N/A     31  26  82 NW9       30.09R WCI  23
FAIRFIELD *    SUNNY     30  25  80 W10       30.13R WCI  21
FORT MADISON * SUNNY     30  27  86 NW12      30.11S WCI  21
KEOKUK *       SUNNY     32  27  80 NW10      30.11R WCI  24
OSKALOOSA *      N/A     28  25  86 W7        30.14R WCI  21
CENTERVILLE *  CLEAR     28  27  93 W7        30.16R WCI  21
OTTUMWA        CLEAR     30  24  78 W7        30.13R WCI  23
WASHINGTON *   SUNNY     28  28 100 W9        30.11R WCI  20
$$

ABBREVIATIONS USED IN REMARKS
   TC - TEMPERATURES IN CELSIUS
  WCI - WIND CHILL INDEX
   HX - HEAT INDEX
  VSB - VISIBILITY
$$



USA.gov is the U.S. government's official web portal to all federal, state and local government web resources and services.